Time,TemperatureF,DewpointF,PressureIn,WindDirection,WindDirectionDegrees,WindSpeedMPH,WindSpeedGustMPH,Humidity,HourlyPrecipIn,Conditions,Clouds,dailyrainin,SoftwareType,DateUTC
2013-01-12 00:00:00,59.5,59.2,29.90,SSE,158,2.0,8.0,99,0.15,,---,0.00,VWS V14.00,2013-01-12 05:00:00,
2013-01-12 00:02:00,59.5,59.2,29.90,WSW,240,1.0,4.0,99,0.11,,---,0.00,VWS V14.00,2013-01-12 05:02:00,
2013-01-12 00:05:00,59.5,59.2,29.90,SW,225,0.0,4.0,99,0.12,,---,0.01,VWS V14.00,2013-01-12 05:05:00,
2013-01-12 00:08:00,59.6,59.3,29.90,South,179,4.0,4.0,99,0.12,,---,0.01,VWS V14.00,2013-01-12 05:08:00,
2013-01-12 00:11:00,59.7,59.4,29.90,SW,231,1.0,4.0,99,0.12,,---,0.01,VWS V14.00,2013-01-12 05:11:00,
2013-01-12 00:14:00,59.7,59.4,29.90,SW,222,0.0,4.0,99,0.13,,---,0.02,VWS V14.00,2013-01-12 05:14:00,
2013-01-12 00:17:00,59.6,59.3,29.90,SW,228,0.0,4.0,99,0.13,,---,0.02,VWS V14.00,2013-01-12 05:17:00,
2013-01-12 00:20:00,59.6,59.3,29.90,West,269,0.0,4.0,99,0.13,,---,0.02,VWS V14.00,2013-01-12 05:20:00,
2013-01-12 00:23:00,59.6,59.3,29.89,SSE,148,0.0,4.0,99,0.13,,---,0.02,VWS V14.00,2013-01-12 05:23:00,
2013-01-12 00:26:00,59.7,59.4,29.90,WSW,240,0.0,4.0,99,0.13,,---,0.02,VWS V14.00,2013-01-12 05:26:00,
2013-01-12 00:29:00,59.6,59.3,29.90,WSW,240,0.0,4.0,99,0.14,,---,0.03,VWS V14.00,2013-01-12 05:29:00,
2013-01-12 00:30:00,59.6,59.3,29.90,WSW,240,0.0,4.0,99,0.14,,---,0.03,VWS V14.00,2013-01-12 05:30:00,
2013-01-12 00:32:00,59.6,59.3,29.90,South,172,1.0,4.0,99,0.09,,---,0.03,VWS V14.00,2013-01-12 05:32:00,
2013-01-12 00:35:00,59.6,59.3,29.90,South,180,2.0,4.0,99,0.09,,---,0.03,VWS V14.00,2013-01-12 05:35:00,
2013-01-12 00:38:00,59.7,59.4,29.90,SSE,166,0.0,4.0,99,0.10,,---,0.04,VWS V14.00,2013-01-12 05:38:00,
2013-01-12 00:41:00,59.7,59.4,29.90,SW,217,0.0,4.0,99,0.10,,---,0.04,VWS V14.00,2013-01-12 05:41:00,
2013-01-12 00:44:00,59.7,59.4,29.90,SW,235,0.0,4.0,99,0.10,,---,0.04,VWS V14.00,2013-01-12 05:44:00,
2013-01-12 00:47:00,59.7,59.4,29.90,SW,222,0.0,4.0,99,0.10,,---,0.04,VWS V14.00,2013-01-12 05:47:00,
2013-01-12 00:50:00,59.8,59.5,29.90,SSE,158,0.0,4.0,99,0.10,,---,0.04,VWS V14.00,2013-01-12 05:50:00,
2013-01-12 00:53:00,59.8,59.5,29.90,SW,233,1.0,4.0,99,0.10,,---,0.04,VWS V14.00,2013-01-12 05:53:00,
2013-01-12 00:56:00,59.9,59.6,29.90,SSE,151,1.0,4.0,99,0.11,,---,0.05,VWS V14.00,2013-01-12 05:56:00,
2013-01-12 00:59:00,59.9,59.6,29.90,SW,226,0.0,4.0,99,0.11,,---,0.05,VWS V14.00,2013-01-12 05:59:00,
2013-01-12 01:00:00,59.9,59.6,29.90,SW,226,0.0,4.0,99,0.11,,---,0.05,VWS V14.00,2013-01-12 06:00:00,
2013-01-12 01:02:00,59.9,59.6,29.89,SSW,199,0.0,0.0,99,0.05,,---,0.05,VWS V14.00,2013-01-12 06:02:00,
2013-01-12 01:05:00,59.9,59.6,29.90,SSE,162,1.0,2.0,99,0.05,,---,0.05,VWS V14.00,2013-01-12 06:05:00,
2013-01-12 01:08:00,60.0,59.7,29.89,SE,139,2.0,4.0,99,0.05,,---,0.05,VWS V14.00,2013-01-12 06:08:00,
2013-01-12 01:11:00,60.0,59.7,29.89,East,88,0.0,4.0,99,0.05,,---,0.05,VWS V14.00,2013-01-12 06:11:00,
2013-01-12 01:14:00,60.0,59.7,29.89,SSE,148,0.0,4.0,99,0.05,,---,0.05,VWS V14.00,2013-01-12 06:14:00,
2013-01-12 01:17:00,60.0,59.7,29.89,SSE,156,2.0,4.0,99,0.05,,---,0.05,VWS V14.00,2013-01-12 06:17:00,
2013-01-12 01:20:00,60.1,59.8,29.89,WSW,248,0.0,4.0,99,0.05,,---,0.05,VWS V14.00,2013-01-12 06:20:00,
2013-01-12 01:23:00,60.0,59.7,29.89,South,179,2.0,4.0,99,0.06,,---,0.06,VWS V14.00,2013-01-12 06:23:00,
2013-01-12 01:26:00,60.1,59.8,29.89,SSE,153,3.0,4.0,99,0.06,,---,0.06,VWS V14.00,2013-01-12 06:26:00,
2013-01-12 01:29:00,60.2,59.9,29.89,SSE,167,1.0,4.0,99,0.06,,---,0.06,VWS V14.00,2013-01-12 06:29:00,
2013-01-12 01:30:00,60.2,59.9,29.90,SSE,168,0.0,4.0,99,0.06,,---,0.06,VWS V14.00,2013-01-12 06:30:00,
2013-01-12 01:32:00,60.2,59.9,29.89,SSE,167,0.0,0.0,99,0.03,,---,0.06,VWS V14.00,2013-01-12 06:32:00,
2013-01-12 01:35:00,60.2,59.9,29.89,SSE,151,0.0,1.0,99,0.03,,---,0.06,VWS V14.00,2013-01-12 06:35:00,
2013-01-12 01:38:00,60.2,59.9,29.90,SSE,163,2.0,2.0,99,0.03,,---,0.06,VWS V14.00,2013-01-12 06:38:00,
2013-01-12 01:41:00,60.2,59.9,29.90,SSW,204,1.0,2.0,99,0.03,,---,0.06,VWS V14.00,2013-01-12 06:41:00,
2013-01-12 01:44:00,60.3,60.0,29.90,SE,134,1.0,3.0,99,0.03,,---,0.06,VWS V14.00,2013-01-12 06:44:00,
2013-01-12 01:47:00,60.3,60.0,29.90,SSE,155,3.0,4.0,99,0.03,,---,0.06,VWS V14.00,2013-01-12 06:47:00,
2013-01-12 01:50:00,60.3,60.0,29.90,SE,136,1.0,4.0,99,0.03,,---,0.06,VWS V14.00,2013-01-12 06:50:00,
2013-01-12 01:53:00,60.4,60.1,29.89,SSE,147,2.0,4.0,99,0.03,,---,0.06,VWS V14.00,2013-01-12 06:53:00,
2013-01-12 01:56:00,60.4,60.1,29.90,SW,228,0.0,4.0,99,0.03,,---,0.06,VWS V14.00,2013-01-12 06:56:00,
2013-01-12 01:59:00,60.3,60.0,29.90,SSW,211,0.0,4.0,99,0.03,,---,0.06,VWS V14.00,2013-01-12 06:59:00,
2013-01-12 02:00:00,60.3,60.0,29.90,SSW,211,0.0,4.0,99,0.03,,---,0.06,VWS V14.00,2013-01-12 07:00:00,
2013-01-12 02:02:00,60.4,60.1,29.90,WSW,243,0.0,2.0,99,0.01,,---,0.06,VWS V14.00,2013-01-12 07:02:00,
2013-01-12 02:05:00,60.1,59.8,29.90,WSW,243,0.0,2.0,99,0.01,,---,0.06,VWS V14.00,2013-01-12 07:05:00,
2013-01-12 02:08:00,60.0,60.0,29.90,WSW,243,0.0,2.0,100,0.01,,---,0.06,VWS V14.00,2013-01-12 07:08:00,
2013-01-12 02:11:00,60.0,60.0,29.90,WSW,243,0.0,2.0,100,0.01,,---,0.06,VWS V14.00,2013-01-12 07:11:00,
2013-01-12 02:14:00,60.0,60.0,29.90,WSW,243,0.0,2.0,100,0.01,,---,0.06,VWS V14.00,2013-01-12 07:14:00,
2013-01-12 02:17:00,60.0,60.0,29.90,WSW,243,0.0,2.0,100,0.01,,---,0.06,VWS V14.00,2013-01-12 07:17:00,
2013-01-12 02:20:00,60.0,60.0,29.90,WSW,243,0.0,2.0,100,0.01,,---,0.06,VWS V14.00,2013-01-12 07:20:00,
2013-01-12 02:23:00,60.0,60.0,29.90,WSW,243,0.0,2.0,100,0.01,,---,0.06,VWS V14.00,2013-01-12 07:23:00,
2013-01-12 02:26:00,60.0,60.0,29.90,WSW,243,0.0,2.0,100,0.01,,---,0.06,VWS V14.00,2013-01-12 07:26:00,
2013-01-12 02:29:00,60.0,60.0,29.90,WSW,243,0.0,2.0,100,0.01,,---,0.06,VWS V14.00,2013-01-12 07:29:00,
2013-01-12 02:30:00,60.0,60.0,29.90,WSW,243,0.0,2.0,100,0.01,,---,0.06,VWS V14.00,2013-01-12 07:30:00,
2013-01-12 02:32:00,60.0,60.0,29.90,WSW,243,0.0,0.0,100,0.00,,---,0.06,VWS V14.00,2013-01-12 07:32:00,
2013-01-12 02:35:00,60.0,60.0,29.90,WSW,243,0.0,0.0,100,0.00,,---,0.06,VWS V14.00,2013-01-12 07:35:00,
2013-01-12 02:38:00,60.0,60.0,29.90,WSW,243,0.0,0.0,100,0.00,,---,0.06,VWS V14.00,2013-01-12 07:38:00,
2013-01-12 02:41:00,60.0,60.0,29.90,WSW,243,0.0,0.0,100,0.00,,---,0.06,VWS V14.00,2013-01-12 07:41:00,
2013-01-12 02:44:00,60.0,60.0,29.90,WSW,243,0.0,0.0,100,0.00,,---,0.06,VWS V14.00,2013-01-12 07:44:00,
2013-01-12 02:47:00,60.0,60.0,29.90,WSW,243,0.0,0.0,100,0.00,,---,0.06,VWS V14.00,2013-01-12 07:47:00,
2013-01-12 02:50:00,60.0,60.0,29.90,WSW,243,0.0,0.0,100,0.00,,---,0.06,VWS V14.00,2013-01-12 07:50:00,
2013-01-12 02:53:00,60.0,60.0,29.90,WSW,243,0.0,0.0,100,0.00,,---,0.06,VWS V14.00,2013-01-12 07:53:00,
2013-01-12 02:56:00,60.0,60.0,29.90,WSW,243,0.0,0.0,100,0.00,,---,0.06,VWS V14.00,2013-01-12 07:56:00,
2013-01-12 02:59:00,60.0,60.0,29.90,WSW,243,0.0,0.0,100,0.00,,---,0.06,VWS V14.00,2013-01-12 07:59:00,
2013-01-12 03:00:00,60.0,60.0,29.90,WSW,243,0.0,0.0,100,0.00,,---,0.06,VWS V14.00,2013-01-12 08:00:00,
2013-01-12 03:02:00,60.0,60.0,29.90,WSW,243,0.0,0.0,100,0.00,,---,0.06,VWS V14.00,2013-01-12 08:02:00,
2013-01-12 03:06:00,60.0,60.0,29.90,WSW,243,0.0,0.0,100,0.00,,---,0.06,VWS V14.00,2013-01-12 08:06:00,
2013-01-12 03:09:00,60.0,60.0,29.90,WSW,243,0.0,0.0,100,0.00,,---,0.06,VWS V14.00,2013-01-12 08:09:00,
2013-01-12 03:12:00,60.0,60.0,29.90,WSW,243,0.0,0.0,100,0.00,,---,0.06,VWS V14.00,2013-01-12 08:12:00,
2013-01-12 03:15:00,60.0,60.0,29.90,WSW,243,0.0,0.0,100,0.00,,---,0.06,VWS V14.00,2013-01-12 08:15:00,
2013-01-12 03:18:00,60.0,60.0,29.89,WSW,243,0.0,0.0,100,0.00,,---,0.06,VWS V14.00,2013-01-12 08:18:00,
2013-01-12 03:21:00,60.0,60.0,29.89,WSW,243,0.0,0.0,100,0.00,,---,0.06,VWS V14.00,2013-01-12 08:21:00,
2013-01-12 03:24:00,60.0,60.0,29.89,WSW,243,0.0,0.0,100,0.00,,---,0.06,VWS V14.00,2013-01-12 08:24:00,
2013-01-12 03:27:00,60.0,60.0,29.89,WSW,243,0.0,0.0,100,0.00,,---,0.06,VWS V14.00,2013-01-12 08:27:00,
2013-01-12 03:30:00,60.0,60.0,29.89,WSW,243,0.0,0.0,100,0.00,,---,0.06,VWS V14.00,2013-01-12 08:30:00,
2013-01-12 03:33:00,60.0,60.0,29.89,WSW,243,0.0,0.0,100,0.00,,---,0.06,VWS V14.00,2013-01-12 08:33:00,
2013-01-12 03:36:00,60.0,60.0,29.89,WSW,243,0.0,0.0,100,0.00,,---,0.06,VWS V14.00,2013-01-12 08:36:00,
2013-01-12 03:39:00,60.0,60.0,29.88,WSW,243,0.0,0.0,100,0.00,,---,0.06,VWS V14.00,2013-01-12 08:39:00,
2013-01-12 03:42:00,60.0,60.0,29.89,WSW,243,0.0,0.0,100,0.00,,---,0.06,VWS V14.00,2013-01-12 08:42:00,
2013-01-12 03:45:00,60.0,60.0,29.88,WSW,243,0.0,0.0,100,0.00,,---,0.06,VWS V14.00,2013-01-12 08:45:00,
2013-01-12 03:51:00,60.0,60.0,29.89,WSW,243,0.0,0.0,100,0.00,,---,0.06,VWS V14.00,2013-01-12 08:51:00,
2013-01-12 03:54:00,60.0,60.0,29.89,WSW,243,0.0,0.0,100,0.00,,---,0.06,VWS V14.00,2013-01-12 08:54:00,
2013-01-12 03:57:00,60.0,60.0,29.89,WSW,243,0.0,0.0,100,0.00,,---,0.06,VWS V14.00,2013-01-12 08:57:00,
2013-01-12 04:00:00,60.0,60.0,29.89,WSW,243,0.0,0.0,100,0.00,,---,0.06,VWS V14.00,2013-01-12 09:00:00,
2013-01-12 04:03:00,60.0,60.0,29.89,WSW,243,0.0,0.0,100,0.00,,---,0.06,VWS V14.00,2013-01-12 09:03:00,
2013-01-12 04:06:00,60.0,60.0,29.89,WSW,243,0.0,0.0,100,0.00,,---,0.06,VWS V14.00,2013-01-12 09:06:00,
2013-01-12 04:09:00,60.0,60.0,29.88,WSW,243,0.0,0.0,100,0.00,,---,0.06,VWS V14.00,2013-01-12 09:09:00,
2013-01-12 04:12:00,60.0,60.0,29.88,WSW,243,0.0,0.0,100,0.00,,---,0.06,VWS V14.00,2013-01-12 09:12:00,
2013-01-12 04:15:00,60.0,60.0,29.88,WSW,243,0.0,0.0,100,0.00,,---,0.06,VWS V14.00,2013-01-12 09:15:00,
2013-01-12 04:18:00,60.0,60.0,29.88,WSW,243,0.0,0.0,100,0.00,,---,0.06,VWS V14.00,2013-01-12 09:18:00,
2013-01-12 04:21:00,60.0,60.0,29.88,WSW,243,0.0,0.0,100,0.00,,---,0.06,VWS V14.00,2013-01-12 09:21:00,
2013-01-12 04:24:00,60.0,60.0,29.88,WSW,243,0.0,0.0,100,0.00,,---,0.06,VWS V14.00,2013-01-12 09:24:00,
2013-01-12 04:27:00,60.0,60.0,29.88,WSW,243,0.0,0.0,100,0.00,,---,0.06,VWS V14.00,2013-01-12 09:27:00,
2013-01-12 04:30:00,60.0,60.0,29.88,WSW,243,0.0,0.0,100,0.00,,---,0.06,VWS V14.00,2013-01-12 09:30:00,
2013-01-12 04:33:00,60.0,60.0,29.88,WSW,243,0.0,0.0,100,0.00,,---,0.06,VWS V14.00,2013-01-12 09:33:00,
2013-01-12 04:36:00,60.0,60.0,29.88,WSW,243,0.0,0.0,100,0.00,,---,0.06,VWS V14.00,2013-01-12 09:36:00,
2013-01-12 04:39:00,60.0,60.0,29.88,WSW,243,0.0,0.0,100,0.00,,---,0.06,VWS V14.00,2013-01-12 09:39:00,
2013-01-12 04:42:00,60.0,60.0,29.88,WSW,243,0.0,0.0,100,0.00,,---,0.06,VWS V14.00,2013-01-12 09:42:00,
2013-01-12 04:45:00,60.0,60.0,29.88,WSW,243,0.0,0.0,100,0.00,,---,0.06,VWS V14.00,2013-01-12 09:45:00,
2013-01-12 04:48:00,60.0,60.0,29.88,WSW,243,0.0,0.0,100,0.00,,---,0.06,VWS V14.00,2013-01-12 09:48:00,
2013-01-12 04:51:00,60.0,60.0,29.88,WSW,243,0.0,0.0,100,0.00,,---,0.06,VWS V14.00,2013-01-12 09:51:00,
2013-01-12 04:54:00,60.0,60.0,29.88,WSW,243,0.0,0.0,100,0.00,,---,0.06,VWS V14.00,2013-01-12 09:54:00,
2013-01-12 04:57:00,60.0,60.0,29.87,WSW,243,0.0,0.0,100,0.00,,---,0.06,VWS V14.00,2013-01-12 09:57:00,
2013-01-12 05:00:00,60.0,60.0,29.87,WSW,243,0.0,0.0,100,0.00,,---,0.06,VWS V14.00,2013-01-12 10:00:00,
2013-01-12 05:03:00,60.0,60.0,29.87,WSW,243,0.0,0.0,100,0.00,,---,0.06,VWS V14.00,2013-01-12 10:03:00,
2013-01-12 05:06:00,60.0,60.0,29.88,WSW,243,0.0,0.0,100,0.00,,---,0.06,VWS V14.00,2013-01-12 10:06:00,
2013-01-12 05:09:00,60.0,60.0,29.88,WSW,243,0.0,0.0,100,0.00,,---,0.06,VWS V14.00,2013-01-12 10:09:00,
2013-01-12 05:12:00,60.0,60.0,29.87,WSW,243,0.0,0.0,100,0.00,,---,0.06,VWS V14.00,2013-01-12 10:12:00,
2013-01-12 05:15:00,60.0,60.0,29.87,WSW,243,0.0,0.0,100,0.00,,---,0.06,VWS V14.00,2013-01-12 10:15:00,
2013-01-12 05:18:00,60.0,60.0,29.87,WSW,243,0.0,0.0,100,0.00,,---,0.06,VWS V14.00,2013-01-12 10:18:00,
2013-01-12 05:21:00,60.0,60.0,29.87,WSW,243,0.0,0.0,100,0.00,,---,0.06,VWS V14.00,2013-01-12 10:21:00,
2013-01-12 05:24:00,60.0,60.0,29.87,WSW,243,0.0,0.0,100,0.00,,---,0.06,VWS V14.00,2013-01-12 10:24:00,
2013-01-12 05:27:00,60.0,60.0,29.87,WSW,243,0.0,0.0,100,0.00,,---,0.06,VWS V14.00,2013-01-12 10:27:00,
2013-01-12 05:30:00,60.0,60.0,29.87,WSW,243,0.0,0.0,100,0.00,,---,0.06,VWS V14.00,2013-01-12 10:30:00,
2013-01-12 05:33:00,60.0,60.0,29.87,WSW,243,0.0,0.0,100,0.00,,---,0.06,VWS V14.00,2013-01-12 10:33:00,
2013-01-12 05:36:00,60.0,60.0,29.87,WSW,243,0.0,0.0,100,0.00,,---,0.06,VWS V14.00,2013-01-12 10:36:00,
2013-01-12 05:39:00,60.0,60.0,29.87,WSW,243,0.0,0.0,100,0.00,,---,0.06,VWS V14.00,2013-01-12 10:39:00,
2013-01-12 05:42:00,60.0,60.0,29.87,WSW,243,0.0,0.0,100,0.00,,---,0.06,VWS V14.00,2013-01-12 10:42:00,
2013-01-12 05:45:00,60.0,60.0,29.87,WSW,243,0.0,0.0,100,0.00,,---,0.06,VWS V14.00,2013-01-12 10:45:00,
2013-01-12 05:48:00,60.0,60.0,29.87,WSW,243,0.0,0.0,100,0.00,,---,0.06,VWS V14.00,2013-01-12 10:48:00,
2013-01-12 05:51:00,60.0,60.0,29.88,WSW,243,0.0,0.0,100,0.00,,---,0.06,VWS V14.00,2013-01-12 10:51:00,
2013-01-12 05:54:00,60.0,60.0,29.88,WSW,243,0.0,0.0,100,0.00,,---,0.06,VWS V14.00,2013-01-12 10:54:00,
2013-01-12 05:57:00,60.0,60.0,29.88,WSW,243,0.0,0.0,100,0.00,,---,0.06,VWS V14.00,2013-01-12 10:57:00,
2013-01-12 06:00:00,60.0,60.0,29.88,WSW,243,0.0,0.0,100,0.00,,---,0.06,VWS V14.00,2013-01-12 11:00:00,
2013-01-12 06:03:00,60.0,60.0,29.88,WSW,243,0.0,0.0,100,0.00,,---,0.06,VWS V14.00,2013-01-12 11:03:00,
2013-01-12 06:06:00,60.0,60.0,29.88,WSW,243,0.0,0.0,100,0.00,,---,0.06,VWS V14.00,2013-01-12 11:06:00,
2013-01-12 06:09:00,60.0,60.0,29.88,WSW,243,0.0,0.0,100,0.00,,---,0.06,VWS V14.00,2013-01-12 11:09:00,
2013-01-12 06:12:00,60.0,60.0,29.88,WSW,243,0.0,0.0,100,0.00,,---,0.06,VWS V14.00,2013-01-12 11:12:00,
2013-01-12 06:15:00,60.0,60.0,29.89,WSW,243,0.0,0.0,100,0.00,,---,0.06,VWS V14.00,2013-01-12 11:15:00,
2013-01-12 06:18:00,60.0,60.0,29.89,WSW,243,0.0,0.0,100,0.00,,---,0.06,VWS V14.00,2013-01-12 11:18:00,
2013-01-12 06:21:00,60.0,60.0,29.89,WSW,243,0.0,0.0,100,0.00,,---,0.06,VWS V14.00,2013-01-12 11:21:00,
2013-01-12 06:24:00,60.0,60.0,29.89,WSW,243,0.0,0.0,100,0.00,,---,0.06,VWS V14.00,2013-01-12 11:24:00,
2013-01-12 06:27:00,60.0,60.0,29.89,WSW,243,0.0,0.0,100,0.00,,---,0.06,VWS V14.00,2013-01-12 11:27:00,
2013-01-12 06:30:00,60.0,60.0,29.89,WSW,243,0.0,0.0,100,0.00,,---,0.06,VWS V14.00,2013-01-12 11:30:00,
2013-01-12 06:33:00,60.0,60.0,29.89,WSW,243,0.0,0.0,100,0.00,,---,0.06,VWS V14.00,2013-01-12 11:33:00,
2013-01-12 06:37:00,60.0,60.0,29.89,WSW,243,0.0,0.0,100,0.00,,---,0.06,VWS V14.00,2013-01-12 11:37:00,
2013-01-12 06:40:00,60.0,60.0,29.89,WSW,243,0.0,0.0,100,0.00,,---,0.06,VWS V14.00,2013-01-12 11:40:00,
2013-01-12 06:43:00,60.0,60.0,29.89,WSW,243,0.0,0.0,100,0.00,,---,0.06,VWS V14.00,2013-01-12 11:43:00,
2013-01-12 06:46:00,60.0,60.0,29.89,WSW,243,0.0,0.0,100,0.00,,---,0.06,VWS V14.00,2013-01-12 11:46:00,
2013-01-12 06:49:00,60.0,60.0,29.89,WSW,243,0.0,0.0,100,0.00,,---,0.06,VWS V14.00,2013-01-12 11:49:00,
2013-01-12 06:52:00,60.0,60.0,29.89,WSW,243,0.0,0.0,100,0.00,,---,0.06,VWS V14.00,2013-01-12 11:52:00,
2013-01-12 06:55:00,60.0,60.0,29.89,WSW,243,0.0,0.0,100,0.00,,---,0.06,VWS V14.00,2013-01-12 11:55:00,
2013-01-12 06:58:00,60.0,60.0,29.89,WSW,243,0.0,0.0,100,0.00,,---,0.06,VWS V14.00,2013-01-12 11:58:00,
2013-01-12 07:00:00,60.0,60.0,29.90,WSW,243,0.0,0.0,100,0.00,,---,0.06,VWS V14.00,2013-01-12 12:00:00,
2013-01-12 07:01:00,60.0,60.0,29.90,WSW,243,0.0,0.0,100,0.00,,---,0.06,VWS V14.00,2013-01-12 12:01:00,
2013-01-12 07:04:00,60.0,60.0,29.90,WSW,243,0.0,0.0,100,0.00,,---,0.06,VWS V14.00,2013-01-12 12:04:00,
2013-01-12 07:07:00,60.0,60.0,29.90,WSW,243,0.0,0.0,100,0.00,,---,0.06,VWS V14.00,2013-01-12 12:07:00,
2013-01-12 07:10:00,60.0,60.0,29.90,WSW,243,0.0,0.0,100,0.00,,---,0.06,VWS V14.00,2013-01-12 12:10:00,
2013-01-12 07:13:00,60.0,60.0,29.90,WSW,243,0.0,0.0,100,0.00,,---,0.06,VWS V14.00,2013-01-12 12:13:00,
2013-01-12 07:16:00,60.0,60.0,29.90,WSW,243,0.0,0.0,100,0.00,,---,0.06,VWS V14.00,2013-01-12 12:16:00,
2013-01-12 07:19:00,60.0,60.0,29.90,WSW,243,0.0,0.0,100,0.00,,---,0.06,VWS V14.00,2013-01-12 12:19:00,
2013-01-12 07:22:00,60.0,60.0,29.90,WSW,243,0.0,0.0,100,0.00,,---,0.06,VWS V14.00,2013-01-12 12:22:00,
2013-01-12 07:25:00,60.0,60.0,29.91,WSW,243,0.0,0.0,100,0.00,,---,0.06,VWS V14.00,2013-01-12 12:25:00,
2013-01-12 07:28:00,60.0,60.0,29.91,WSW,243,0.0,0.0,100,0.00,,---,0.06,VWS V14.00,2013-01-12 12:28:00,
2013-01-12 07:30:00,60.0,60.0,29.91,WSW,243,0.0,0.0,100,0.00,,---,0.06,VWS V14.00,2013-01-12 12:30:00,
2013-01-12 07:31:00,60.0,60.0,29.91,WSW,243,0.0,0.0,100,0.00,,---,0.06,VWS V14.00,2013-01-12 12:31:00,
2013-01-12 07:34:00,60.0,60.0,29.91,WSW,243,0.0,0.0,100,0.00,,---,0.06,VWS V14.00,2013-01-12 12:34:00,
2013-01-12 07:37:00,60.0,60.0,29.91,WSW,243,0.0,0.0,100,0.00,,---,0.06,VWS V14.00,2013-01-12 12:37:00,
2013-01-12 07:40:00,60.0,60.0,29.91,WSW,243,0.0,0.0,100,0.00,,---,0.06,VWS V14.00,2013-01-12 12:40:00,
2013-01-12 07:43:00,60.0,60.0,29.91,WSW,243,0.0,0.0,100,0.00,,---,0.06,VWS V14.00,2013-01-12 12:43:00,
2013-01-12 07:46:00,60.0,60.0,29.91,WSW,243,0.0,0.0,100,0.00,,---,0.06,VWS V14.00,2013-01-12 12:46:00,
2013-01-12 07:49:00,60.0,60.0,29.90,WSW,243,0.0,0.0,100,0.00,,---,0.06,VWS V14.00,2013-01-12 12:49:00,
2013-01-12 07:52:00,60.0,60.0,29.91,WSW,243,0.0,0.0,100,0.00,,---,0.06,VWS V14.00,2013-01-12 12:52:00,
2013-01-12 07:55:00,60.0,60.0,29.91,WSW,243,0.0,0.0,100,0.00,,---,0.06,VWS V14.00,2013-01-12 12:55:00,
2013-01-12 07:58:00,60.0,60.0,29.91,WSW,243,0.0,0.0,100,0.00,,---,0.06,VWS V14.00,2013-01-12 12:58:00,
2013-01-12 08:00:00,60.0,60.0,29.91,WSW,243,0.0,0.0,100,0.00,,---,0.06,VWS V14.00,2013-01-12 13:00:00,
2013-01-12 08:01:00,60.0,60.0,29.91,WSW,243,0.0,0.0,100,0.00,,---,0.06,VWS V14.00,2013-01-12 13:01:00,
2013-01-12 08:04:00,60.0,60.0,29.90,WSW,243,0.0,0.0,100,0.00,,---,0.06,VWS V14.00,2013-01-12 13:04:00,
2013-01-12 08:07:00,60.0,60.0,29.91,WSW,243,0.0,0.0,100,0.00,,---,0.06,VWS V14.00,2013-01-12 13:07:00,
2013-01-12 08:10:00,60.0,60.0,29.90,WSW,243,0.0,0.0,100,0.00,,---,0.06,VWS V14.00,2013-01-12 13:10:00,
2013-01-12 08:13:00,60.0,60.0,29.90,WSW,243,0.0,0.0,100,0.00,,---,0.06,VWS V14.00,2013-01-12 13:13:00,
2013-01-12 08:16:00,60.0,60.0,29.91,WSW,243,0.0,0.0,100,0.00,,---,0.06,VWS V14.00,2013-01-12 13:16:00,
2013-01-12 08:19:00,60.0,60.0,29.91,WSW,243,0.0,0.0,100,0.00,,---,0.06,VWS V14.00,2013-01-12 13:19:00,
2013-01-12 08:22:00,60.0,60.0,29.91,WSW,243,0.0,0.0,100,0.00,,---,0.06,VWS V14.00,2013-01-12 13:22:00,
2013-01-12 08:25:00,60.0,60.0,29.91,WSW,243,0.0,0.0,100,0.00,,---,0.06,VWS V14.00,2013-01-12 13:25:00,
2013-01-12 08:28:00,60.0,60.0,29.91,WSW,243,0.0,0.0,100,0.00,,---,0.06,VWS V14.00,2013-01-12 13:28:00,
2013-01-12 08:30:00,60.0,60.0,29.91,WSW,243,0.0,0.0,100,0.00,,---,0.06,VWS V14.00,2013-01-12 13:30:00,
2013-01-12 08:31:00,60.0,60.0,29.91,WSW,243,0.0,0.0,100,0.00,,---,0.06,VWS V14.00,2013-01-12 13:31:00,
2013-01-12 08:34:00,60.0,60.0,29.91,WSW,243,0.0,0.0,100,0.00,,---,0.06,VWS V14.00,2013-01-12 13:34:00,
2013-01-12 08:37:00,60.0,60.0,29.91,WSW,243,0.0,0.0,100,0.00,,---,0.06,VWS V14.00,2013-01-12 13:37:00,
2013-01-12 08:40:00,60.0,60.0,29.91,WSW,243,0.0,0.0,100,0.00,,---,0.06,VWS V14.00,2013-01-12 13:40:00,
2013-01-12 08:43:00,60.0,60.0,29.91,WSW,243,0.0,0.0,100,0.00,,---,0.06,VWS V14.00,2013-01-12 13:43:00,
2013-01-12 08:46:00,60.0,60.0,29.91,WSW,243,0.0,0.0,100,0.00,,---,0.06,VWS V14.00,2013-01-12 13:46:00,
2013-01-12 08:49:00,60.0,60.0,29.91,WSW,243,0.0,0.0,100,0.00,,---,0.06,VWS V14.00,2013-01-12 13:49:00,
2013-01-12 08:52:00,60.0,60.0,29.92,WSW,243,0.0,0.0,100,0.00,,---,0.06,VWS V14.00,2013-01-12 13:52:00,
2013-01-12 08:55:00,60.0,60.0,29.92,WSW,243,0.0,0.0,100,0.00,,---,0.06,VWS V14.00,2013-01-12 13:55:00,
2013-01-12 08:58:00,60.0,60.0,29.92,WSW,243,0.0,0.0,100,0.00,,---,0.06,VWS V14.00,2013-01-12 13:58:00,
2013-01-12 09:00:00,60.0,60.0,29.91,WSW,243,0.0,0.0,100,0.00,,---,0.06,VWS V14.00,2013-01-12 14:00:00,
2013-01-12 09:01:00,60.0,60.0,29.92,WSW,243,0.0,0.0,100,0.00,,---,0.06,VWS V14.00,2013-01-12 14:01:00,
2013-01-12 09:04:00,60.0,60.0,29.92,WSW,243,0.0,0.0,100,0.00,,---,0.06,VWS V14.00,2013-01-12 14:04:00,
2013-01-12 09:07:00,60.0,60.0,29.92,WSW,243,0.0,0.0,100,0.00,,---,0.06,VWS V14.00,2013-01-12 14:07:00,
2013-01-12 09:10:00,60.0,60.0,29.92,WSW,243,0.0,0.0,100,0.00,,---,0.06,VWS V14.00,2013-01-12 14:10:00,
2013-01-12 09:13:00,60.0,60.0,29.92,WSW,243,0.0,0.0,100,0.00,,---,0.06,VWS V14.00,2013-01-12 14:13:00,
2013-01-12 09:16:00,60.0,60.0,29.92,WSW,243,0.0,0.0,100,0.00,,---,0.06,VWS V14.00,2013-01-12 14:16:00,
2013-01-12 09:19:00,59.7,59.7,29.92,NE,43,0.0,0.0,100,0.00,,---,0.06,VWS V14.00,2013-01-12 14:19:00,
2013-01-12 09:22:00,59.9,59.9,29.92,NE,40,0.0,0.0,100,0.00,,---,0.06,VWS V14.00,2013-01-12 14:22:00,
2013-01-12 09:25:00,59.9,59.9,29.92,WNW,285,0.0,0.0,100,0.00,,---,0.06,VWS V14.00,2013-01-12 14:25:00,
2013-01-12 09:28:00,60.0,60.0,29.92,WNW,285,0.0,0.0,100,0.00,,---,0.06,VWS V14.00,2013-01-12 14:28:00,
2013-01-12 09:30:00,60.1,60.1,29.92,WNW,285,0.0,0.0,100,0.00,,---,0.06,VWS V14.00,2013-01-12 14:30:00,
2013-01-12 09:31:00,60.1,60.1,29.92,WNW,285,0.0,0.0,100,0.00,,---,0.06,VWS V14.00,2013-01-12 14:31:00,
2013-01-12 09:34:00,60.1,60.1,29.93,WNW,285,0.0,0.0,100,0.00,,---,0.06,VWS V14.00,2013-01-12 14:34:00,
2013-01-12 09:37:00,60.2,60.2,29.92,WNW,285,0.0,0.0,100,0.00,,---,0.06,VWS V14.00,2013-01-12 14:37:00,
2013-01-12 09:40:00,60.3,60.3,29.93,WNW,285,0.0,0.0,100,0.00,,---,0.06,VWS V14.00,2013-01-12 14:40:00,
2013-01-12 09:43:00,60.4,60.4,29.93,WNW,285,0.0,0.0,100,0.00,,---,0.06,VWS V14.00,2013-01-12 14:43:00,
2013-01-12 09:46:00,60.7,60.7,29.92,WNW,285,0.0,0.0,100,0.00,,---,0.06,VWS V14.00,2013-01-12 14:46:00,
2013-01-12 09:49:00,60.7,60.7,29.92,WNW,285,0.0,0.0,100,0.00,,---,0.06,VWS V14.00,2013-01-12 14:49:00,
2013-01-12 09:52:00,60.9,60.9,29.92,WNW,285,0.0,0.0,100,0.00,,---,0.06,VWS V14.00,2013-01-12 14:52:00,
2013-01-12 09:55:00,60.9,60.9,29.92,SSW,193,0.0,0.0,100,0.00,,---,0.06,VWS V14.00,2013-01-12 14:55:00,
2013-01-12 09:58:00,60.9,60.6,29.92,SW,217,0.0,0.0,99,0.00,,---,0.06,VWS V14.00,2013-01-12 14:58:00,
2013-01-12 10:00:00,61.0,60.7,29.92,SW,217,0.0,0.0,99,0.00,,---,0.06,VWS V14.00,2013-01-12 15:00:00,
2013-01-12 10:01:00,61.1,60.8,29.92,SW,217,0.0,0.0,99,0.00,,---,0.06,VWS V14.00,2013-01-12 15:01:00,
2013-01-12 10:04:00,61.1,60.8,29.92,SW,217,0.0,0.0,99,0.00,,---,0.06,VWS V14.00,2013-01-12 15:04:00,
2013-01-12 10:07:00,61.1,60.8,29.92,SW,217,0.0,0.0,99,0.00,,---,0.06,VWS V14.00,2013-01-12 15:07:00,
2013-01-12 10:10:00,61.1,60.8,29.92,SW,219,0.0,0.0,99,0.00,,---,0.06,VWS V14.00,2013-01-12 15:10:00,
2013-01-12 10:13:00,61.1,60.8,29.92,SW,232,0.0,0.0,99,0.00,,---,0.06,VWS V14.00,2013-01-12 15:13:00,
2013-01-12 10:16:00,61.1,60.8,29.91,SW,232,0.0,0.0,99,0.00,,---,0.06,VWS V14.00,2013-01-12 15:16:00,
2013-01-12 10:19:00,61.2,60.9,29.92,SW,232,0.0,0.0,99,0.00,,---,0.06,VWS V14.00,2013-01-12 15:19:00,
2013-01-12 10:22:00,61.3,61.0,29.91,SW,231,0.0,0.0,99,0.00,,---,0.06,VWS V14.00,2013-01-12 15:22:00,
2013-01-12 10:25:00,61.5,61.2,29.91,SW,232,0.0,0.0,99,0.00,,---,0.06,VWS V14.00,2013-01-12 15:25:00,
2013-01-12 10:30:00,61.7,61.4,29.91,SW,232,0.0,0.0,99,0.00,,---,0.06,VWS V14.00,2013-01-12 15:30:00,
2013-01-12 10:34:00,61.7,61.4,29.91,SW,231,0.0,0.0,99,0.00,,---,0.06,VWS V14.00,2013-01-12 15:34:00,
2013-01-12 10:37:00,61.8,61.5,29.91,SW,232,0.0,0.0,99,0.00,,---,0.06,VWS V14.00,2013-01-12 15:37:00,
2013-01-12 10:40:00,61.6,61.3,29.91,South,173,0.0,0.0,99,0.00,,---,0.06,VWS V14.00,2013-01-12 15:40:00,
2013-01-12 10:43:00,61.6,61.3,29.91,South,173,0.0,0.0,99,0.00,,---,0.06,VWS V14.00,2013-01-12 15:43:00,
2013-01-12 10:53:00,61.6,61.3,29.91,SW,232,0.0,0.0,99,0.00,,---,0.06,VWS V14.00,2013-01-12 15:53:00,
2013-01-12 10:58:00,62.0,61.7,29.90,SSW,198,1.0,3.0,99,0.00,,---,0.06,VWS V14.00,2013-01-12 15:58:00,
2013-01-12 11:00:00,62.0,61.7,29.90,South,186,0.0,3.0,99,0.00,,---,0.06,VWS V14.00,2013-01-12 16:00:00,
2013-01-12 11:01:00,62.1,61.8,29.90,South,176,0.0,2.0,99,0.00,,---,0.06,VWS V14.00,2013-01-12 16:01:00,
2013-01-12 11:04:00,62.1,61.5,29.90,South,177,2.0,5.0,98,0.00,,---,0.06,VWS V14.00,2013-01-12 16:04:00,
2013-01-12 11:10:00,62.0,61.4,29.90,South,172,3.0,5.0,98,0.00,,---,0.06,VWS V14.00,2013-01-12 16:10:00,
2013-01-12 11:11:00,61.7,61.4,29.90,SW,224,0.0,0.0,99,0.00,,---,0.06,VWS V14.00,2013-01-12 16:11:00,
2013-01-12 11:17:00,61.9,61.6,29.90,SE,146,0.0,0.0,99,0.00,,---,0.06,VWS V14.00,2013-01-12 16:17:00,
2013-01-12 11:25:00,62.4,61.8,29.89,SE,143,4.0,7.0,98,0.00,,---,0.06,VWS V14.00,2013-01-12 16:25:00,
2013-01-12 11:28:00,62.5,61.9,29.89,South,181,3.0,7.0,98,0.00,,---,0.06,VWS V14.00,2013-01-12 16:28:00,
2013-01-12 11:30:00,62.5,61.9,29.89,South,173,3.0,7.0,98,0.00,,---,0.06,VWS V14.00,2013-01-12 16:30:00,
2013-01-12 11:31:00,62.6,62.0,29.89,South,188,3.0,4.0,98,0.00,,---,0.06,VWS V14.00,2013-01-12 16:31:00,
2013-01-12 11:32:00,62.1,61.5,29.90,South,187,4.0,5.0,98,0.00,,---,0.06,VWS V14.00,2013-01-12 16:32:00,
2013-01-12 11:38:00,62.1,61.5,29.89,SSE,155,3.0,5.0,98,0.00,,---,0.06,VWS V14.00,2013-01-12 16:38:00,
2013-01-12 11:40:00,62.9,62.3,29.88,South,170,2.0,4.0,98,0.00,,---,0.06,VWS V14.00,2013-01-12 16:40:00,
2013-01-12 11:43:00,63.0,62.4,29.88,SE,136,1.0,4.0,98,0.00,,---,0.06,VWS V14.00,2013-01-12 16:43:00,
2013-01-12 11:44:00,62.2,61.6,29.89,SSE,160,4.0,7.0,98,0.00,,---,0.06,VWS V14.00,2013-01-12 16:44:00,
2013-01-12 11:52:00,63.4,62.5,29.88,SSE,148,1.0,4.0,97,0.00,,---,0.06,VWS V14.00,2013-01-12 16:52:00,
2013-01-12 11:55:00,63.7,63.1,29.87,SSE,165,2.0,4.0,98,0.00,,---,0.06,VWS V14.00,2013-01-12 16:55:00,
2013-01-12 11:58:00,63.8,62.9,29.87,SSE,166,1.0,4.0,97,0.00,,---,0.06,VWS V14.00,2013-01-12 16:58:00,
2013-01-12 11:59:00,62.8,62.2,29.89,SSE,165,3.0,4.0,98,0.00,,---,0.06,VWS V14.00,2013-01-12 16:59:00,
2013-01-12 12:00:00,63.9,63.0,29.87,SSE,158,2.0,4.0,97,0.00,,---,0.06,VWS V14.00,2013-01-12 17:00:00,
2013-01-12 12:02:00,63.9,63.0,29.87,SSE,163,2.0,3.0,97,0.00,,---,0.06,VWS V14.00,2013-01-12 17:02:00,
2013-01-12 12:05:00,64.1,62.9,29.87,SSE,153,2.0,3.0,96,0.00,,---,0.06,VWS V14.00,2013-01-12 17:05:00,
2013-01-12 12:08:00,64.3,63.1,29.87,South,189,0.0,3.0,96,0.00,,---,0.06,VWS V14.00,2013-01-12 17:08:00,
2013-01-12 12:11:00,63.2,62.6,29.88,SE,141,1.0,4.0,98,0.00,,---,0.06,VWS V14.00,2013-01-12 17:11:00,
2013-01-12 12:14:00,64.8,63.3,29.86,SE,131,2.0,3.0,95,0.00,,---,0.06,VWS V14.00,2013-01-12 17:14:00,
2013-01-12 12:17:00,65.0,63.5,29.86,SE,128,3.0,3.0,95,0.00,,---,0.06,VWS V14.00,2013-01-12 17:17:00,
2013-01-12 12:20:00,65.0,63.2,29.86,SSE,155,1.0,4.0,94,0.00,,---,0.06,VWS V14.00,2013-01-12 17:20:00,
2013-01-12 12:23:00,65.1,63.3,29.86,SSE,153,2.0,4.0,94,0.00,,---,0.06,VWS V14.00,2013-01-12 17:23:00,
2013-01-12 12:26:00,65.3,63.2,29.86,SE,132,0.0,4.0,93,0.00,,---,0.06,VWS V14.00,2013-01-12 17:26:00,
2013-01-12 12:29:00,65.4,63.3,29.85,SSE,162,2.0,4.0,93,0.00,,---,0.06,VWS V14.00,2013-01-12 17:29:00,
2013-01-12 12:30:00,65.4,63.0,29.85,SSE,153,4.0,4.0,92,0.00,,---,0.06,VWS V14.00,2013-01-12 17:30:00,
2013-01-12 12:32:00,65.5,62.2,29.85,SSE,160,1.0,5.0,89,0.00,,---,0.06,VWS V14.00,2013-01-12 17:32:00,
2013-01-12 12:35:00,65.7,62.7,29.86,SSE,154,2.0,5.0,90,0.00,,---,0.06,VWS V14.00,2013-01-12 17:35:00,
2013-01-12 12:38:00,65.9,62.6,29.86,SSE,156,3.0,5.0,89,0.00,,---,0.06,VWS V14.00,2013-01-12 17:38:00,
2013-01-12 12:41:00,66.0,62.3,29.86,SE,143,2.0,5.0,88,0.00,,---,0.06,VWS V14.00,2013-01-12 17:41:00,
2013-01-12 12:44:00,66.2,63.2,29.85,SSE,150,3.0,5.0,90,0.00,,---,0.06,VWS V14.00,2013-01-12 17:44:00,
2013-01-12 12:47:00,66.4,63.1,29.86,SSE,160,6.0,8.0,89,0.00,,---,0.06,VWS V14.00,2013-01-12 17:47:00,
2013-01-12 12:50:00,66.4,62.7,29.85,SSE,147,4.0,8.0,88,0.00,,---,0.06,VWS V14.00,2013-01-12 17:50:00,
2013-01-12 12:53:00,66.4,62.4,29.86,SSE,153,5.0,8.0,87,0.00,,---,0.06,VWS V14.00,2013-01-12 17:53:00,
2013-01-12 12:56:00,66.4,62.1,29.85,SSE,153,5.0,8.0,86,0.00,,---,0.06,VWS V14.00,2013-01-12 17:56:00,
2013-01-12 12:59:00,66.5,62.8,29.85,SSE,163,3.0,8.0,88,0.00,,---,0.06,VWS V14.00,2013-01-12 17:59:00,
2013-01-12 13:00:00,66.5,62.8,29.85,SSE,150,7.0,8.0,88,0.00,,---,0.06,VWS V14.00,2013-01-12 18:00:00,
2013-01-12 13:02:00,66.6,62.6,29.85,SSW,208,4.0,7.0,87,0.00,,---,0.06,VWS V14.00,2013-01-12 18:02:00,
2013-01-12 13:05:00,66.7,62.7,29.85,SE,139,6.0,7.0,87,0.00,,---,0.06,VWS V14.00,2013-01-12 18:05:00,
2013-01-12 13:08:00,66.8,62.5,29.85,SSE,165,5.0,7.0,86,0.00,,---,0.06,VWS V14.00,2013-01-12 18:08:00,
2013-01-12 13:11:00,66.8,62.5,29.85,SE,138,7.0,7.0,86,0.00,,---,0.06,VWS V14.00,2013-01-12 18:11:00,
2013-01-12 13:14:00,67.0,62.3,29.85,SSE,148,7.0,8.0,85,0.00,,---,0.06,VWS V14.00,2013-01-12 18:14:00,
2013-01-12 13:17:00,67.3,62.3,29.85,SSE,153,8.0,8.0,84,0.00,,---,0.06,VWS V14.00,2013-01-12 18:17:00,
2013-01-12 13:20:00,67.5,61.5,29.85,South,173,7.0,9.0,81,0.00,,---,0.06,VWS V14.00,2013-01-12 18:20:00,
2013-01-12 13:23:00,67.9,62.2,29.85,SSW,210,4.0,9.0,82,0.00,,---,0.06,VWS V14.00,2013-01-12 18:23:00,
2013-01-12 13:26:00,68.2,61.8,29.84,South,174,4.0,9.0,80,0.00,,---,0.06,VWS V14.00,2013-01-12 18:26:00,
2013-01-12 13:29:00,68.5,62.1,29.84,South,174,5.0,9.0,80,0.00,,---,0.06,VWS V14.00,2013-01-12 18:29:00,
2013-01-12 13:30:00,68.6,62.2,29.84,SSE,158,5.0,9.0,80,0.00,,---,0.06,VWS V14.00,2013-01-12 18:30:00,
2013-01-12 13:32:00,68.6,61.5,29.84,SW,235,3.0,6.0,78,0.00,,---,0.06,VWS V14.00,2013-01-12 18:32:00,
2013-01-12 13:35:00,68.6,61.1,29.84,SSE,153,5.0,9.0,77,0.00,,---,0.06,VWS V14.00,2013-01-12 18:35:00,
2013-01-12 13:38:00,68.4,60.9,29.84,SSE,161,7.0,9.0,77,0.00,,---,0.06,VWS V14.00,2013-01-12 18:38:00,
2013-01-12 13:41:00,68.3,60.8,29.84,SE,136,3.0,9.0,77,0.00,,---,0.06,VWS V14.00,2013-01-12 18:41:00,
2013-01-12 13:44:00,68.4,61.3,29.84,SW,231,4.0,9.0,78,0.00,,---,0.06,VWS V14.00,2013-01-12 18:44:00,
2013-01-12 13:47:00,68.4,59.8,29.84,South,172,6.0,9.0,74,0.00,,---,0.06,VWS V14.00,2013-01-12 18:47:00,
2013-01-12 13:50:00,68.5,59.9,29.84,SSW,203,4.0,9.0,74,0.00,,---,0.06,VWS V14.00,2013-01-12 18:50:00,
2013-01-12 13:53:00,68.5,59.1,29.84,SW,217,2.0,9.0,72,0.00,,---,0.06,VWS V14.00,2013-01-12 18:53:00,
2013-01-12 13:56:00,68.6,59.2,29.84,WSW,243,6.0,9.0,72,0.00,,---,0.06,VWS V14.00,2013-01-12 18:56:00,
2013-01-12 13:59:00,68.6,59.6,29.84,SSW,204,2.0,9.0,73,0.00,,---,0.06,VWS V14.00,2013-01-12 18:59:00,
2013-01-12 14:00:00,68.6,59.6,29.84,South,169,2.0,9.0,73,0.00,,---,0.06,VWS V14.00,2013-01-12 19:00:00,
2013-01-12 14:02:00,68.8,60.2,29.84,South,179,7.0,7.0,74,0.00,,---,0.06,VWS V14.00,2013-01-12 19:02:00,
2013-01-12 14:05:00,68.9,59.9,29.84,South,169,3.0,7.0,73,0.00,,---,0.06,VWS V14.00,2013-01-12 19:05:00,
2013-01-12 14:08:00,69.0,59.6,29.84,South,184,2.0,7.0,72,0.00,,---,0.06,VWS V14.00,2013-01-12 19:08:00,
2013-01-12 14:11:00,69.0,60.0,29.83,SSE,165,2.0,7.0,73,0.00,,---,0.06,VWS V14.00,2013-01-12 19:11:00,
2013-01-12 14:14:00,69.2,61.0,29.83,SSE,166,6.0,7.0,75,0.00,,---,0.06,VWS V14.00,2013-01-12 19:14:00,
2013-01-12 14:17:00,69.1,60.5,29.83,SE,141,3.0,7.0,74,0.00,,---,0.06,VWS V14.00,2013-01-12 19:17:00,
2013-01-12 14:20:00,68.8,60.2,29.84,SSE,150,7.0,8.0,74,0.00,,---,0.06,VWS V14.00,2013-01-12 19:20:00,
2013-01-12 14:23:00,68.4,59.4,29.84,WSW,249,3.0,8.0,73,0.00,,---,0.06,VWS V14.00,2013-01-12 19:23:00,
2013-01-12 14:26:00,68.3,59.3,29.84,ESE,122,5.0,8.0,73,0.00,,---,0.06,VWS V14.00,2013-01-12 19:26:00,
2013-01-12 14:29:00,68.1,58.3,29.84,SSE,148,2.0,8.0,71,0.00,,---,0.06,VWS V14.00,2013-01-12 19:29:00,
2013-01-12 14:30:00,68.1,58.0,29.84,SSE,158,3.0,8.0,70,0.00,,---,0.06,VWS V14.00,2013-01-12 19:30:00,
2013-01-12 14:32:00,68.0,57.1,29.84,SSE,162,5.0,8.0,68,0.00,,---,0.06,VWS V14.00,2013-01-12 19:32:00,
2013-01-12 14:35:00,67.9,57.4,29.84,SSE,151,3.0,8.0,69,0.00,,---,0.06,VWS V14.00,2013-01-12 19:35:00,
2013-01-12 14:38:00,67.8,57.7,29.84,South,186,6.0,9.0,70,0.00,,---,0.06,VWS V14.00,2013-01-12 19:38:00,
2013-01-12 14:41:00,67.7,58.4,29.84,South,169,6.0,9.0,72,0.00,,---,0.06,VWS V14.00,2013-01-12 19:41:00,
2013-01-12 14:44:00,67.5,58.5,29.84,SSE,158,5.0,9.0,73,0.00,,---,0.06,VWS V14.00,2013-01-12 19:44:00,
2013-01-12 14:47:00,67.4,58.8,29.84,SSE,168,4.0,9.0,74,0.00,,---,0.06,VWS V14.00,2013-01-12 19:47:00,
2013-01-12 14:50:00,67.3,58.0,29.84,SSE,167,6.0,9.0,72,0.00,,---,0.06,VWS V14.00,2013-01-12 19:50:00,
2013-01-12 14:53:00,67.4,57.3,29.84,SSE,158,7.0,9.0,70,0.00,,---,0.06,VWS V14.00,2013-01-12 19:53:00,
2013-01-12 14:56:00,67.4,57.7,29.84,SSE,153,4.0,9.0,71,0.00,,---,0.06,VWS V14.00,2013-01-12 19:56:00,
2013-01-12 14:59:00,67.4,58.1,29.84,SSE,150,6.0,9.0,72,0.00,,---,0.06,VWS V14.00,2013-01-12 19:59:00,
2013-01-12 15:00:00,67.4,58.1,29.84,SSE,158,5.0,9.0,72,0.00,,---,0.06,VWS V14.00,2013-01-12 20:00:00,
2013-01-12 15:02:00,67.4,56.1,29.84,South,173,3.0,9.0,67,0.00,,---,0.06,VWS V14.00,2013-01-12 20:02:00,
2013-01-12 15:05:00,67.5,56.2,29.84,South,190,4.0,9.0,67,0.00,,---,0.06,VWS V14.00,2013-01-12 20:05:00,
2013-01-12 15:14:00,67.5,56.2,29.84,SSW,205,3.0,9.0,67,0.00,,---,0.06,VWS V14.00,2013-01-12 20:14:00,
2013-01-12 15:17:00,67.3,56.0,29.83,SW,225,2.0,9.0,67,0.00,,---,0.06,VWS V14.00,2013-01-12 20:17:00,
2013-01-12 15:20:00,67.3,56.8,29.84,SW,219,2.0,9.0,69,0.00,,---,0.06,VWS V14.00,2013-01-12 20:20:00,
2013-01-12 15:23:00,67.2,56.3,29.84,South,189,1.0,9.0,68,0.00,,---,0.06,VWS V14.00,2013-01-12 20:23:00,
2013-01-12 15:26:00,67.2,56.7,29.84,South,188,3.0,9.0,69,0.00,,---,0.06,VWS V14.00,2013-01-12 20:26:00,
2013-01-12 15:29:00,67.1,56.6,29.84,SW,214,2.0,9.0,69,0.00,,---,0.06,VWS V14.00,2013-01-12 20:29:00,
2013-01-12 15:30:00,67.1,57.0,29.84,South,172,2.0,9.0,70,0.00,,---,0.06,VWS V14.00,2013-01-12 20:30:00,
2013-01-12 15:32:00,67.1,57.0,29.84,SW,219,1.0,4.0,70,0.00,,---,0.06,VWS V14.00,2013-01-12 20:32:00,
2013-01-12 15:33:00,67.6,55.8,29.84,SSW,192,2.0,9.0,66,0.00,,---,0.06,VWS V14.00,2013-01-12 20:33:00,
2013-01-12 15:35:00,67.0,57.3,29.84,SSE,158,2.0,4.0,71,0.00,,---,0.06,VWS V14.00,2013-01-12 20:35:00,
2013-01-12 15:38:00,66.9,58.0,29.84,South,169,2.0,5.0,73,0.00,,---,0.06,VWS V14.00,2013-01-12 20:38:00,
2013-01-12 15:44:00,66.6,58.1,29.84,SSE,160,4.0,7.0,74,0.00,,---,0.06,VWS V14.00,2013-01-12 20:44:00,
2013-01-12 15:47:00,66.4,57.9,29.84,SSE,159,4.0,7.0,74,0.00,,---,0.06,VWS V14.00,2013-01-12 20:47:00,
2013-01-12 15:50:00,66.3,58.2,29.84,SSE,150,4.0,7.0,75,0.00,,---,0.06,VWS V14.00,2013-01-12 20:50:00,
2013-01-12 15:53:00,66.2,58.4,29.84,SSE,163,3.0,7.0,76,0.00,,---,0.06,VWS V14.00,2013-01-12 20:53:00,
2013-01-12 15:56:00,66.1,58.7,29.84,SSE,159,5.0,7.0,77,0.00,,---,0.06,VWS V14.00,2013-01-12 20:56:00,
2013-01-12 15:59:00,65.9,58.5,29.84,SSE,160,4.0,7.0,77,0.00,,---,0.06,VWS V14.00,2013-01-12 20:59:00,
2013-01-12 16:00:00,65.9,58.5,29.84,SSE,161,4.0,7.0,77,0.00,,---,0.06,VWS V14.00,2013-01-12 21:00:00,
2013-01-12 16:02:00,65.8,58.8,29.84,SSE,148,3.0,5.0,78,0.00,,---,0.06,VWS V14.00,2013-01-12 21:02:00,
2013-01-12 16:05:00,65.7,58.7,29.84,SSE,156,2.0,6.0,78,0.00,,---,0.06,VWS V14.00,2013-01-12 21:05:00,
2013-01-12 16:06:00,66.8,58.3,29.84,South,177,3.0,5.0,74,0.00,,---,0.06,VWS V14.00,2013-01-12 21:06:00,
2013-01-12 16:08:00,65.6,58.9,29.84,SSE,148,2.0,6.0,79,0.00,,---,0.06,VWS V14.00,2013-01-12 21:08:00,
2013-01-12 16:11:00,65.5,58.8,29.84,SSE,163,4.0,6.0,79,0.00,,---,0.06,VWS V14.00,2013-01-12 21:11:00,
2013-01-12 16:14:00,65.4,58.7,29.84,SSE,163,3.0,6.0,79,0.00,,---,0.06,VWS V14.00,2013-01-12 21:14:00,
2013-01-12 16:17:00,65.3,59.0,29.84,South,181,4.0,6.0,80,0.00,,---,0.06,VWS V14.00,2013-01-12 21:17:00,
2013-01-12 16:20:00,65.2,58.9,29.84,SSE,154,4.0,6.0,80,0.00,,---,0.06,VWS V14.00,2013-01-12 21:20:00,
2013-01-12 16:23:00,65.2,59.2,29.84,South,169,5.0,6.0,81,0.00,,---,0.06,VWS V14.00,2013-01-12 21:23:00,
2013-01-12 16:29:00,65.1,59.1,29.84,SE,141,6.0,7.0,81,0.00,,---,0.06,VWS V14.00,2013-01-12 21:29:00,
2013-01-12 16:30:00,65.1,59.1,29.84,SSE,160,5.0,7.0,81,0.00,,---,0.06,VWS V14.00,2013-01-12 21:30:00,
2013-01-12 16:32:00,65.0,59.0,29.83,South,180,5.0,8.0,81,0.00,,---,0.06,VWS V14.00,2013-01-12 21:32:00,
2013-01-12 16:35:00,64.9,59.3,29.83,SSE,166,4.0,8.0,82,0.00,,---,0.06,VWS V14.00,2013-01-12 21:35:00,
2013-01-12 16:38:00,64.8,59.2,29.83,SSE,156,6.0,8.0,82,0.00,,---,0.06,VWS V14.00,2013-01-12 21:38:00,
2013-01-12 16:41:00,64.7,59.1,29.83,South,184,5.0,8.0,82,0.00,,---,0.06,VWS V14.00,2013-01-12 21:41:00,
2013-01-12 16:44:00,64.6,59.0,29.83,South,172,6.0,8.0,82,0.00,,---,0.06,VWS V14.00,2013-01-12 21:44:00,
2013-01-12 16:51:00,65.2,59.2,29.84,SSE,167,4.0,6.0,81,0.00,,---,0.06,VWS V14.00,2013-01-12 21:51:00,
2013-01-12 16:53:00,64.2,58.9,29.83,SE,139,6.0,9.0,83,0.00,,---,0.06,VWS V14.00,2013-01-12 21:53:00,
2013-01-12 16:59:00,64.0,59.1,29.84,SSW,211,4.0,9.0,84,0.00,,---,0.06,VWS V14.00,2013-01-12 21:59:00,
2013-01-12 17:00:00,63.9,59.0,29.84,South,173,3.0,9.0,84,0.00,,---,0.06,VWS V14.00,2013-01-12 22:00:00,
2013-01-12 17:02:00,63.8,58.9,29.84,SSE,166,5.0,6.0,84,0.00,,---,0.06,VWS V14.00,2013-01-12 22:02:00,
2013-01-12 17:05:00,63.7,58.8,29.84,SW,228,2.0,7.0,84,0.00,,---,0.06,VWS V14.00,2013-01-12 22:05:00,
2013-01-12 17:08:00,63.7,58.8,29.84,SSE,160,5.0,7.0,84,0.00,,---,0.06,VWS V14.00,2013-01-12 22:08:00,
2013-01-12 17:12:00,64.4,58.8,29.83,South,174,6.0,8.0,82,0.00,,---,0.06,VWS V14.00,2013-01-12 22:12:00,
2013-01-12 17:15:00,63.5,58.6,29.84,SSW,192,2.0,10.0,84,0.00,,---,0.06,VWS V14.00,2013-01-12 22:15:00,
2013-01-12 17:18:00,63.3,58.4,29.84,SSE,166,4.0,10.0,84,0.00,,---,0.06,VWS V14.00,2013-01-12 22:18:00,
2013-01-12 17:21:00,64.1,58.8,29.83,SSW,194,4.0,9.0,83,0.00,,---,0.06,VWS V14.00,2013-01-12 22:21:00,
2013-01-12 17:24:00,62.9,58.3,29.84,SE,139,4.0,10.0,85,0.00,,---,0.06,VWS V14.00,2013-01-12 22:24:00,
2013-01-12 17:27:00,62.6,58.4,29.84,South,177,4.0,10.0,86,0.00,,---,0.06,VWS V14.00,2013-01-12 22:27:00,
2013-01-12 17:30:00,62.6,58.4,29.84,SSE,165,5.0,10.0,86,0.00,,---,0.06,VWS V14.00,2013-01-12 22:30:00,
2013-01-12 17:33:00,62.6,58.4,29.84,SE,139,3.0,6.0,86,0.00,,---,0.06,VWS V14.00,2013-01-12 22:33:00,
2013-01-12 17:36:00,63.7,58.8,29.84,SSE,160,2.0,10.0,84,0.00,,---,0.06,VWS V14.00,2013-01-12 22:36:00,
2013-01-12 17:39:00,62.6,58.4,29.83,South,172,3.0,7.0,86,0.00,,---,0.06,VWS V14.00,2013-01-12 22:39:00,
2013-01-12 17:42:00,62.6,58.4,29.83,SSE,154,4.0,7.0,86,0.00,,---,0.06,VWS V14.00,2013-01-12 22:42:00,
2013-01-12 17:45:00,62.5,58.3,29.83,SSE,150,3.0,7.0,86,0.00,,---,0.06,VWS V14.00,2013-01-12 22:45:00,
2013-01-12 17:48:00,62.3,58.1,29.83,SE,139,2.0,7.0,86,0.00,,---,0.06,VWS V14.00,2013-01-12 22:48:00,
2013-01-12 17:51:00,62.0,58.1,29.84,SSE,147,2.0,7.0,87,0.00,,---,0.06,VWS V14.00,2013-01-12 22:51:00,
2013-01-12 17:54:00,61.8,58.2,29.84,South,170,1.0,7.0,88,0.00,,---,0.06,VWS V14.00,2013-01-12 22:54:00,
2013-01-12 17:57:00,61.6,58.0,29.84,SW,229,0.0,7.0,88,0.00,,---,0.06,VWS V14.00,2013-01-12 22:57:00,
2013-01-12 18:00:00,61.5,57.9,29.84,SW,228,0.0,7.0,88,0.00,,---,0.06,VWS V14.00,2013-01-12 23:00:00,
2013-01-12 18:03:00,61.4,58.1,29.84,SW,228,0.0,0.0,89,0.00,,---,0.06,VWS V14.00,2013-01-12 23:03:00,
2013-01-12 18:06:00,61.2,57.9,29.84,SW,228,0.0,0.0,89,0.00,,---,0.06,VWS V14.00,2013-01-12 23:06:00,
2013-01-12 18:09:00,61.0,57.7,29.84,SW,228,0.0,0.0,89,0.00,,---,0.06,VWS V14.00,2013-01-12 23:09:00,
2013-01-12 18:12:00,60.8,57.8,29.84,SSE,158,0.0,0.0,90,0.00,,---,0.06,VWS V14.00,2013-01-12 23:12:00,
2013-01-12 18:15:00,60.8,58.2,29.84,SSE,156,0.0,0.0,91,0.00,,---,0.06,VWS V14.00,2013-01-12 23:15:00,
2013-01-12 18:18:00,60.8,57.8,29.84,SSE,167,0.0,0.0,90,0.00,,---,0.06,VWS V14.00,2013-01-12 23:18:00,
2013-01-12 18:21:00,60.7,58.1,29.85,SSW,204,1.0,2.0,91,0.00,,---,0.06,VWS V14.00,2013-01-12 23:21:00,
2013-01-12 18:24:00,60.7,58.1,29.85,SSW,197,1.0,2.0,91,0.00,,---,0.06,VWS V14.00,2013-01-12 23:24:00,
2013-01-12 18:27:00,60.8,58.5,29.85,SSE,163,1.0,2.0,92,0.00,,---,0.06,VWS V14.00,2013-01-12 23:27:00,
2013-01-12 18:30:00,60.9,58.9,29.85,SW,219,3.0,4.0,93,0.00,,---,0.06,VWS V14.00,2013-01-12 23:30:00,
2013-01-12 18:33:00,61.1,59.1,29.84,SSE,165,0.0,3.0,93,0.00,,---,0.06,VWS V14.00,2013-01-12 23:33:00,
2013-01-12 18:36:00,61.1,59.1,29.84,SSW,205,0.0,3.0,93,0.00,,---,0.06,VWS V14.00,2013-01-12 23:36:00,
2013-01-12 18:39:00,61.2,59.2,29.84,SW,217,1.0,3.0,93,0.00,,---,0.06,VWS V14.00,2013-01-12 23:39:00,
2013-01-12 18:42:00,61.2,59.2,29.84,SSE,158,2.0,3.0,93,0.00,,---,0.06,VWS V14.00,2013-01-12 23:42:00,
2013-01-12 18:45:00,61.2,59.2,29.84,SSE,167,3.0,3.0,93,0.00,,---,0.06,VWS V14.00,2013-01-12 23:45:00,
2013-01-12 18:48:00,61.3,59.6,29.84,SSE,160,4.0,5.0,94,0.00,,---,0.06,VWS V14.00,2013-01-12 23:48:00,
2013-01-12 18:51:00,61.4,59.7,29.84,SSE,151,2.0,5.0,94,0.00,,---,0.06,VWS V14.00,2013-01-12 23:51:00,
2013-01-12 18:54:00,61.5,59.8,29.84,South,169,3.0,5.0,94,0.00,,---,0.06,VWS V14.00,2013-01-12 23:54:00,
2013-01-12 18:57:00,61.6,59.6,29.84,South,188,1.0,5.0,93,0.00,,---,0.06,VWS V14.00,2013-01-12 23:57:00,
2013-01-12 19:00:00,61.6,59.6,29.84,SSW,212,1.0,5.0,93,0.00,,---,0.06,VWS V14.00,2013-01-13 00:00:00,
2013-01-12 19:03:00,61.7,59.7,29.84,SSE,156,5.0,5.0,93,0.00,,---,0.06,VWS V14.00,2013-01-13 00:03:00,
2013-01-12 19:06:00,61.8,59.8,29.84,South,176,3.0,8.0,93,0.00,,---,0.06,VWS V14.00,2013-01-13 00:06:00,
2013-01-12 19:09:00,62.0,59.7,29.84,South,177,2.0,8.0,92,0.00,,---,0.06,VWS V14.00,2013-01-13 00:09:00,
2013-01-12 19:12:00,62.0,59.7,29.84,SSW,204,2.0,8.0,92,0.00,,---,0.06,VWS V14.00,2013-01-13 00:12:00,
2013-01-12 19:15:00,62.1,59.8,29.84,South,181,2.0,8.0,92,0.00,,---,0.06,VWS V14.00,2013-01-13 00:15:00,
2013-01-12 19:18:00,62.2,59.8,29.84,SSW,204,4.0,8.0,92,0.00,,---,0.06,VWS V14.00,2013-01-13 00:18:00,
2013-01-12 19:21:00,62.2,59.8,29.84,SSE,166,4.0,8.0,92,0.00,,---,0.06,VWS V14.00,2013-01-13 00:21:00,
2013-01-12 19:24:00,62.3,59.6,29.84,South,174,4.0,8.0,91,0.00,,---,0.06,VWS V14.00,2013-01-13 00:24:00,
2013-01-12 19:27:00,62.3,59.6,29.84,SW,215,2.0,8.0,91,0.00,,---,0.06,VWS V14.00,2013-01-13 00:27:00,
2013-01-12 19:30:00,62.3,59.6,29.84,South,186,3.0,8.0,91,0.00,,---,0.06,VWS V14.00,2013-01-13 00:30:00,
2013-01-12 19:33:00,62.4,59.7,29.84,SSE,165,2.0,5.0,91,0.00,,---,0.06,VWS V14.00,2013-01-13 00:33:00,
2013-01-12 19:36:00,62.3,59.6,29.84,South,172,2.0,5.0,91,0.00,,---,0.06,VWS V14.00,2013-01-13 00:36:00,
2013-01-12 19:39:00,62.2,59.5,29.84,SSE,163,3.0,5.0,91,0.00,,---,0.06,VWS V14.00,2013-01-13 00:39:00,
2013-01-12 19:42:00,62.2,59.5,29.84,South,180,1.0,5.0,91,0.00,,---,0.06,VWS V14.00,2013-01-13 00:42:00,
2013-01-12 19:45:00,62.2,59.5,29.84,SSW,195,3.0,5.0,91,0.00,,---,0.06,VWS V14.00,2013-01-13 00:45:00,
2013-01-12 19:48:00,62.2,59.5,29.84,SW,226,0.0,5.0,91,0.00,,---,0.06,VWS V14.00,2013-01-13 00:48:00,
2013-01-12 19:51:00,62.1,59.5,29.84,SSW,212,0.0,5.0,91,0.00,,---,0.06,VWS V14.00,2013-01-13 00:51:00,
2013-01-12 19:54:00,62.0,59.3,29.83,WSW,238,3.0,5.0,91,0.00,,---,0.06,VWS V14.00,2013-01-13 00:54:00,
2013-01-12 19:57:00,61.9,59.2,29.84,SSW,213,3.0,5.0,91,0.00,,---,0.06,VWS V14.00,2013-01-13 00:57:00,
2013-01-12 20:00:00,62.0,59.3,29.83,SW,217,3.0,5.0,91,0.00,,---,0.06,VWS V14.00,2013-01-13 01:00:00,
2013-01-12 20:03:00,62.0,59.3,29.83,SSE,166,1.0,5.0,91,0.00,,---,0.06,VWS V14.00,2013-01-13 01:03:00,
2013-01-12 20:06:00,62.0,59.3,29.84,WSW,240,1.0,5.0,91,0.00,,---,0.06,VWS V14.00,2013-01-13 01:06:00,
2013-01-12 20:09:00,62.0,59.3,29.84,SW,218,2.0,5.0,91,0.00,,---,0.06,VWS V14.00,2013-01-13 01:09:00,
2013-01-12 20:12:00,62.0,59.3,29.84,SSW,204,2.0,5.0,91,0.00,,---,0.06,VWS V14.00,2013-01-13 01:12:00,
2013-01-12 20:15:00,62.0,59.3,29.83,South,170,4.0,5.0,91,0.00,,---,0.06,VWS V14.00,2013-01-13 01:15:00,
2013-01-12 20:19:00,62.0,59.3,29.83,SSE,165,4.0,5.0,91,0.00,,---,0.06,VWS V14.00,2013-01-13 01:19:00,
2013-01-12 20:22:00,61.9,59.2,29.83,SSW,197,0.0,5.0,91,0.00,,---,0.06,VWS V14.00,2013-01-13 01:22:00,
2013-01-12 20:25:00,61.8,59.2,29.83,SSW,210,0.0,5.0,91,0.00,,---,0.06,VWS V14.00,2013-01-13 01:25:00,
2013-01-12 20:28:00,61.6,59.0,29.83,SSW,205,1.0,5.0,91,0.00,,---,0.06,VWS V14.00,2013-01-13 01:28:00,
2013-01-12 20:30:00,61.4,58.8,29.83,SW,215,0.0,5.0,91,0.00,,---,0.06,VWS V14.00,2013-01-13 01:30:00,
2013-01-12 20:31:00,61.4,58.8,29.83,SW,215,0.0,0.0,91,0.00,,---,0.06,VWS V14.00,2013-01-13 01:31:00,
2013-01-12 20:34:00,61.2,58.9,29.83,SSW,207,0.0,0.0,92,0.00,,---,0.06,VWS V14.00,2013-01-13 01:34:00,
2013-01-12 20:37:00,61.1,58.8,29.83,SW,231,0.0,0.0,92,0.00,,---,0.06,VWS V14.00,2013-01-13 01:37:00,
2013-01-12 20:40:00,60.9,58.6,29.83,WSW,240,0.0,0.0,92,0.00,,---,0.06,VWS V14.00,2013-01-13 01:40:00,
2013-01-12 20:43:00,60.7,58.4,29.83,WSW,240,0.0,0.0,92,0.00,,---,0.06,VWS V14.00,2013-01-13 01:43:00,
2013-01-12 20:46:00,60.5,58.5,29.83,SW,215,0.0,0.0,93,0.00,,---,0.06,VWS V14.00,2013-01-13 01:46:00,
2013-01-12 20:49:00,60.3,58.3,29.83,SSW,208,0.0,0.0,93,0.00,,---,0.06,VWS V14.00,2013-01-13 01:49:00,
2013-01-12 20:52:00,60.1,58.1,29.83,SSW,208,0.0,0.0,93,0.00,,---,0.06,VWS V14.00,2013-01-13 01:52:00,
2013-01-12 20:55:00,59.9,57.9,29.83,SSW,208,0.0,0.0,93,0.00,,---,0.06,VWS V14.00,2013-01-13 01:55:00,
2013-01-12 20:58:00,59.8,58.1,29.83,SSW,208,0.0,0.0,94,0.00,,---,0.06,VWS V14.00,2013-01-13 01:58:00,
2013-01-12 21:00:00,59.7,58.0,29.83,SSW,207,0.0,0.0,94,0.00,,---,0.06,VWS V14.00,2013-01-13 02:00:00,
2013-01-12 21:01:00,59.7,58.0,29.83,SSW,208,0.0,0.0,94,0.00,,---,0.06,VWS V14.00,2013-01-13 02:01:00,
2013-01-12 21:04:00,59.5,57.8,29.83,SSW,208,0.0,0.0,94,0.00,,---,0.06,VWS V14.00,2013-01-13 02:04:00,
2013-01-12 21:07:00,59.3,57.6,29.82,SSE,160,0.0,0.0,94,0.00,,---,0.06,VWS V14.00,2013-01-13 02:07:00,
2013-01-12 21:10:00,59.1,57.4,29.82,SSE,157,0.0,0.0,94,0.00,,---,0.06,VWS V14.00,2013-01-13 02:10:00,
2013-01-12 21:13:00,58.9,57.5,29.82,SSW,201,0.0,0.0,95,0.00,,---,0.06,VWS V14.00,2013-01-13 02:13:00,
2013-01-12 21:16:00,58.8,57.4,29.82,SW,232,0.0,0.0,95,0.00,,---,0.06,VWS V14.00,2013-01-13 02:16:00,
2013-01-12 21:19:00,58.8,57.4,29.83,WSW,238,0.0,0.0,95,0.00,,---,0.06,VWS V14.00,2013-01-13 02:19:00,
2013-01-12 21:22:00,58.8,57.4,29.83,SSE,156,0.0,0.0,95,0.00,,---,0.06,VWS V14.00,2013-01-13 02:22:00,
2013-01-12 21:25:00,58.8,57.4,29.83,SSW,212,1.0,1.0,95,0.00,,---,0.06,VWS V14.00,2013-01-13 02:25:00,
2013-01-12 21:28:00,58.9,57.5,29.83,WSW,249,2.0,4.0,95,0.00,,---,0.06,VWS V14.00,2013-01-13 02:28:00,
2013-01-12 21:30:00,59.1,57.7,29.83,South,187,0.0,5.0,95,0.00,,---,0.06,VWS V14.00,2013-01-13 02:30:00,
2013-01-12 21:31:00,59.2,57.5,29.83,SW,218,0.0,2.0,94,0.00,,---,0.06,VWS V14.00,2013-01-13 02:31:00,
2013-01-12 21:34:00,59.3,57.6,29.83,SSE,150,2.0,4.0,94,0.00,,---,0.06,VWS V14.00,2013-01-13 02:34:00,
2013-01-12 21:37:00,59.5,57.8,29.83,South,191,3.0,5.0,94,0.00,,---,0.06,VWS V14.00,2013-01-13 02:37:00,
2013-01-12 21:40:00,59.9,58.2,29.83,South,176,3.0,5.0,94,0.00,,---,0.06,VWS V14.00,2013-01-13 02:40:00,
2013-01-12 21:43:00,60.2,58.2,29.82,SSE,163,2.0,5.0,93,0.00,,---,0.06,VWS V14.00,2013-01-13 02:43:00,
2013-01-12 21:46:00,60.3,58.0,29.82,South,170,3.0,5.0,92,0.00,,---,0.06,VWS V14.00,2013-01-13 02:46:00,
2013-01-12 21:49:00,60.4,58.1,29.83,SSW,211,3.0,6.0,92,0.00,,---,0.06,VWS V14.00,2013-01-13 02:49:00,
2013-01-12 21:52:00,60.5,58.2,29.82,SSW,213,2.0,6.0,92,0.00,,---,0.06,VWS V14.00,2013-01-13 02:52:00,
2013-01-12 21:55:00,60.4,58.1,29.82,SSW,207,2.0,6.0,92,0.00,,---,0.06,VWS V14.00,2013-01-13 02:55:00,
2013-01-12 21:58:00,60.4,58.1,29.82,SSE,152,1.0,6.0,92,0.00,,---,0.06,VWS V14.00,2013-01-13 02:58:00,
2013-01-12 22:00:00,60.4,58.1,29.83,South,188,1.0,6.0,92,0.00,,---,0.06,VWS V14.00,2013-01-13 03:00:00,
2013-01-12 22:01:00,60.4,58.1,29.82,South,185,2.0,2.0,92,0.00,,---,0.06,VWS V14.00,2013-01-13 03:01:00,
2013-01-12 22:04:00,60.3,58.0,29.82,South,173,1.0,4.0,92,0.00,,---,0.06,VWS V14.00,2013-01-13 03:04:00,
2013-01-12 22:07:00,60.3,58.0,29.83,South,172,2.0,4.0,92,0.00,,---,0.06,VWS V14.00,2013-01-13 03:07:00,
2013-01-12 22:10:00,60.4,58.1,29.82,SSW,207,1.0,4.0,92,0.00,,---,0.06,VWS V14.00,2013-01-13 03:10:00,
2013-01-12 22:13:00,60.4,57.8,29.82,South,180,1.0,4.0,91,0.00,,---,0.06,VWS V14.00,2013-01-13 03:13:00,
2013-01-12 22:16:00,60.3,57.7,29.82,WSW,238,0.0,4.0,91,0.00,,---,0.06,VWS V14.00,2013-01-13 03:16:00,
2013-01-12 22:19:00,60.2,57.9,29.82,SSE,165,2.0,4.0,92,0.00,,---,0.06,VWS V14.00,2013-01-13 03:19:00,
2013-01-12 22:22:00,60.3,58.0,29.82,South,169,2.0,4.0,92,0.00,,---,0.06,VWS V14.00,2013-01-13 03:22:00,
2013-01-12 22:25:00,60.3,58.0,29.82,SSW,197,1.0,4.0,92,0.00,,---,0.06,VWS V14.00,2013-01-13 03:25:00,
2013-01-12 22:28:00,60.4,57.8,29.82,SE,143,1.0,4.0,91,0.00,,---,0.06,VWS V14.00,2013-01-13 03:28:00,
2013-01-12 22:30:00,60.4,57.8,29.82,SSE,156,1.0,4.0,91,0.00,,---,0.06,VWS V14.00,2013-01-13 03:30:00,
2013-01-12 22:31:00,60.4,57.8,29.82,SW,228,1.0,3.0,91,0.00,,---,0.06,VWS V14.00,2013-01-13 03:31:00,
2013-01-12 22:34:00,60.4,57.8,29.82,SSE,156,0.0,3.0,91,0.00,,---,0.06,VWS V14.00,2013-01-13 03:34:00,
2013-01-12 22:37:00,60.4,57.8,29.82,SSE,156,0.0,3.0,91,0.00,,---,0.06,VWS V14.00,2013-01-13 03:37:00,
2013-01-12 22:40:00,60.4,57.8,29.82,SSE,163,3.0,5.0,91,0.00,,---,0.06,VWS V14.00,2013-01-13 03:40:00,
2013-01-12 22:43:00,60.5,57.9,29.82,South,173,4.0,5.0,91,0.00,,---,0.06,VWS V14.00,2013-01-13 03:43:00,
2013-01-12 22:46:00,60.7,58.1,29.82,SE,139,1.0,5.0,91,0.00,,---,0.06,VWS V14.00,2013-01-13 03:46:00,
2013-01-12 22:49:00,60.7,57.8,29.82,SSW,207,2.0,5.0,90,0.00,,---,0.06,VWS V14.00,2013-01-13 03:49:00,
2013-01-12 22:52:00,60.7,57.8,29.83,SW,221,2.0,5.0,90,0.00,,---,0.06,VWS V14.00,2013-01-13 03:52:00,
2013-01-12 22:55:00,60.6,57.7,29.83,South,173,1.0,5.0,90,0.00,,---,0.06,VWS V14.00,2013-01-13 03:55:00,
2013-01-12 22:58:00,60.6,58.0,29.83,SSE,168,1.0,5.0,91,0.00,,---,0.06,VWS V14.00,2013-01-13 03:58:00,
2013-01-12 23:00:00,60.6,58.0,29.83,SSE,150,2.0,5.0,91,0.00,,---,0.06,VWS V14.00,2013-01-13 04:00:00,
2013-01-12 23:01:00,60.6,58.0,29.83,SSE,150,1.0,2.0,91,0.00,,---,0.06,VWS V14.00,2013-01-13 04:01:00,
2013-01-12 23:04:00,60.7,57.8,29.82,SSE,164,6.0,7.0,90,0.00,,---,0.06,VWS V14.00,2013-01-13 04:04:00,
2013-01-12 23:07:00,61.0,58.0,29.83,South,187,5.0,7.0,90,0.00,,---,0.06,VWS V14.00,2013-01-13 04:07:00,
2013-01-12 23:10:00,61.1,58.2,29.82,South,179,7.0,8.0,90,0.00,,---,0.06,VWS V14.00,2013-01-13 04:10:00,
2013-01-12 23:13:00,61.3,58.0,29.82,South,188,2.0,8.0,89,0.00,,---,0.06,VWS V14.00,2013-01-13 04:13:00,
2013-01-12 23:16:00,61.3,58.0,29.83,SSE,160,5.0,8.0,89,0.00,,---,0.06,VWS V14.00,2013-01-13 04:16:00,
2013-01-12 23:19:00,61.3,58.0,29.83,South,190,2.0,8.0,89,0.00,,---,0.06,VWS V14.00,2013-01-13 04:19:00,
2013-01-12 23:22:00,61.3,58.0,29.83,SE,144,5.0,8.0,89,0.00,,---,0.06,VWS V14.00,2013-01-13 04:22:00,
2013-01-12 23:25:00,61.2,57.9,29.83,South,175,4.0,8.0,89,0.00,,---,0.06,VWS V14.00,2013-01-13 04:25:00,
2013-01-12 23:28:00,61.2,57.9,29.83,SE,143,4.0,8.0,89,0.00,,---,0.06,VWS V14.00,2013-01-13 04:28:00,
2013-01-12 23:30:00,61.2,57.9,29.83,South,174,6.0,8.0,89,0.00,,---,0.06,VWS V14.00,2013-01-13 04:30:00,
2013-01-12 23:31:00,61.2,57.9,29.83,South,178,2.0,9.0,89,0.00,,---,0.06,VWS V14.00,2013-01-13 04:31:00,
2013-01-12 23:34:00,61.2,57.9,29.82,SSE,158,5.0,9.0,89,0.00,,---,0.06,VWS V14.00,2013-01-13 04:34:00,
2013-01-12 23:37:00,61.2,57.9,29.82,SSE,160,3.0,9.0,89,0.00,,---,0.06,VWS V14.00,2013-01-13 04:37:00,
2013-01-12 23:40:00,61.1,58.2,29.82,South,181,5.0,9.0,90,0.00,,---,0.06,VWS V14.00,2013-01-13 04:40:00,
2013-01-12 23:43:00,61.1,58.2,29.82,SSE,163,4.0,9.0,90,0.00,,---,0.06,VWS V14.00,2013-01-13 04:43:00,
2013-01-12 23:46:00,61.1,58.2,29.82,SE,134,5.0,9.0,90,0.00,,---,0.06,VWS V14.00,2013-01-13 04:46:00,
2013-01-12 23:49:00,61.1,57.8,29.82,South,177,10.0,10.0,89,0.00,,---,0.06,VWS V14.00,2013-01-13 04:49:00,
2013-01-12 23:52:00,61.2,57.9,29.82,SSE,150,6.0,11.0,89,0.00,,---,0.06,VWS V14.00,2013-01-13 04:52:00,
2013-01-12 23:55:00,61.3,58.0,29.82,SSE,165,6.0,11.0,89,0.00,,---,0.06,VWS V14.00,2013-01-13 04:55:00,
2013-01-12 23:58:00,61.2,57.9,29.82,South,170,11.0,11.0,89,0.00,,---,0.06,VWS V14.00,2013-01-13 04:58:00,